Location: Altenst�hlen
(53.5567°N, 8.9425°E)
Time: 03:15:49
(UTC+00:00)

STARLINK-37 - Pass Details

Date: 23 October 2019
Orbit: 548 x 553 km, 53.0° (Epoch: 18 November)

Event Time Altitude Azimuth Distance (km) Brightness Sun altitude
Rises 17:22:27 0° 273° (W) 2,726 9.3 -11.3°
Reaches altitude 10° 17:24:41 10° 273° (W) 1,831 7.8 -11.6°
Maximum altitude 17:28:51 82° 187° (S) 562 3.6 -12.2°
Enters shadow 17:31:44 19° 100° (E) 1,332 5.0 -12.6°
